Flag for Germany Weather past 2 weeks in Sankt Ingbert, Saarland, Germany

Now
50 °F

Fog.


Feels Like: 49 °F
Forecast: 37 / 45 °F
Wind: 3 mph from Southwest

Location: Saarbruecken / Ensheim

Current Time: Oct 21, 2014 at 6:19:40 AM

Latest Report: Oct 21, 2014 at 6:00 AM


Visibility: 1 mi

Pressure: 29.98 "Hg

Humidity: 100%

Dew point: 50 °F

Location of Sankt IngbertLocation

Historic Weather in Sankt Ingbert — Graph

°F

Sankt Ingbert temperature yesterday

Maximum temperature yesterday: 65 °F (at 3:00 PM)
Minimum temperature yesterday: 54 °F (at 11:00 PM)
Average temperature yesterday: 60 °F

Past Weeks' High & Low Weather Summary

 TemperatureHumidityPressure
High71 °F (Oct 19, 4:00 PM)100% (Oct 10, 3:00 AM)30.18 "Hg (Oct 10, 3:00 AM)
Low45 °F (Oct 12, 6:00 AM)61% (Oct 18, 3:00 PM)29.64 "Hg (Oct 7, 9:00 AM)
Average57 °F92%29.90 "Hg
* Reported Oct 6 5:00 AM — Oct 21 5:00 AM, Sankt Ingbert, Weather by CustomWeather, © 2014

Note: Actual official high and low records may vary slightly from our data, if they occured in-between our weather recording intervals... More about our weather records

Advertising

Sankt Ingbert weather history for previous 24 hours

 ConditionsComfort  
Time TempWeatherWind HumidityBarometerVisibility
5:00 AM
Oct 21
50 °FFog.6 mph99%29.99 "Hg2 mi
4:00 AM50 °FLow clouds.2 mph99%30.00 "Hg6 mi
3:00 AM51 °FLow clouds.3 mph99%30.02 "Hg6 mi
2:00 AM51 °FLow clouds.2 mph100%30.03 "Hg6 mi
1:00 AM51 °FPassing clouds.3 mph98%30.04 "Hg9 mi
12:00 AM53 °FPassing clouds.3 mph98%30.04 "Hg12 mi
11:00 PM
Oct 20
54 °FPassing clouds.3 mph97%30.04 "Hg16 mi
10:00 PM55 °FLow clouds.3 mph96%30.04 "Hg16 mi
9:00 PM57 °FLight rain. Low clouds.3 mph97%30.04 "Hg11 mi
8:00 PM57 °FLight rain. Overcast.3 mph93%30.05 "Hg16 mi
7:00 PM58 °FLight rain. Overcast.5 mph89%30.04 "Hg16 mi
6:00 PM59 °FOvercast.6 mph87%30.05 "Hg16 mi
5:00 PM60 °FOvercast.5 mph83%30.06 "Hg16 mi
4:00 PM62 °FOvercast.6 mph81%30.07 "Hg16 mi
3:00 PM65 °FOvercast.3 mph80%30.07 "Hg16 mi
2:00 PM62 °FOvercast.5 mph81%30.09 "Hg16 mi
1:00 PM62 °FOvercast.6 mph82%30.11 "Hg16 mi
12:00 PM62 °FOvercast.5 mph86%30.11 "Hg12 mi
11:00 AM61 °FLow clouds.3 mph92%30.11 "Hg11 mi
10:00 AM59 °FLow clouds.5 mph97%30.12 "Hg7 mi
9:00 AM59 °FLow clouds.3 mph96%30.11 "Hg10 mi
8:00 AM59 °FLow clouds.3 mph95%30.10 "Hg11 mi
7:00 AM59 °FLow clouds.3 mph94%30.11 "Hg11 mi
Weather by CustomWeather, © 2014

See weather overviewHow to use our weather pages